Været på Ålesund Lufhavn, Vigra (ENAL)

 

Time for time, neste 48 timer:

Detaljert varsel fra yr.no - 48 timer

Vindprognose for Breisundet:

Vindvarsel

Upper Winds 3000 fot akkurat nå:

ENAL akkurat nå:

  • METAR: 120820Z 14012KT CAVOK 01/M04 Q1029
  • TAF: TAF 120500Z 1206/1215 14010KT CAVOK